Regional Weather Roundup
Issued by NWS

Home | Current Version | Previous Version | Text Only | Print | Product List | Glossary On
Versions: 1 2 3 4 5 6 7 8 9 10 11 12 13 14 15 16 17 18 19 20 21 22 23 24 25 26 27 28 29 30 31 32 33 34 35 36 37 38 39 40 41 42 43 44 45 46 47 48 49 50
000
ASUS42 KFFC 101203
RWRGA
WEATHER ROUNDUP FOR GEORGIA
NATIONAL WEATHER SERVICE PEACHTREE CITY GA
700 AM EST SAT DEC 10 2016

NOTE: "FAIR" INDICATES FEW OR NO CLOUDS BELOW 12,000 FEET WITH NO
SIGNIFICANT WEATHER AND/OR OBSTRUCTIONS TO VISIBILITY.

* = USE WITH CAUTION. THE STATIONS MARKED WITH AN ASTERISK MAY NOT
REPORT WEATHER SUCH AS PRECIPITATION, FOG, OR THUNDER AND ARE NOT
QUALITY CONTROLLED BY NWS.

THE REMARK "TC" DENOTES TEMPERATURE READING IN DEGREES CELSIUS.

GAZ001>058-101300-
NORTH GEORGIA

CITY           SKY/WX    TMP DP  RH WIND       PRES   REMARKS
ATLANTA        CLEAR     26  19  74 N7        30.50R WCI  18
6HR MIN TEMP:  26; 6HR MAX TEMP:  30;

ATHENS         CLEAR     25  16  68 CALM      30.51R
6HR MIN TEMP:  25; 6HR MAX TEMP:  28;

CHAMBLEE       CLEAR     25  17  72 CALM      30.50R
6HR MIN TEMP:  24; 6HR MAX TEMP:  29;

PEACHTREE CITY   N/A    N/A N/A N/A MISG      30.52R
ROME           CLEAR     22  17  81 NE3       30.55R
6HR MIN TEMP:  21; 6HR MAX TEMP:  29;

WEST ATLANTA   CLEAR     25  17  72 CALM      30.52R
6HR MIN TEMP:  25; 6HR MAX TEMP:  30;

GAINESVILLE    CLEAR     27  18  69 NE3       30.50R
6HR MIN TEMP:  26; 6HR MAX TEMP:  29;

CARTERSVILLE   CLEAR     22  18  85 CALM      30.55R
6HR MIN TEMP:  22; 6HR MAX TEMP:  27;



CITY           SKY/WX    TMP DP  RH WIND       PRES   REMARKS
DALTON*        CLEAR     23  19  86 N5        30.56R WCI  17
LAWRENCEVILLE* CLEAR     23  16  74 CALM      30.53
MARIETTA       CLEAR     25  17  71 CALM      30.50R
KENNESAW*      CLEAR     23  16  74 CALM      30.50
CANTON*        CLEAR     21  14  73 CALM      30.51R
$$

GAZ059>098-102>109-101300-
CENTRAL GEORGIA

CITY           SKY/WX    TMP DP  RH WIND       PRES   REMARKS
AUGUSTA-BUSH   CLEAR     25  22  88 CALM      30.54R
6HR MIN TEMP:  25; 6HR MAX TEMP:  29;

AUGUSTA-DANIEL CLEAR     32  17  54 E3        30.53R
6HR MIN TEMP:  29; 6HR MAX TEMP:  37;

COLUMBUS       CLEAR     29  17  61 NE5       30.52R WCI  24
6HR MIN TEMP:  29; 6HR MAX TEMP:  32;

MACON          CLEAR     24  20  84 W3        30.52R
6HR MIN TEMP:  24; 6HR MAX TEMP:  28;

ROBINS AFB     CLEAR     25  22  87 CALM      30.52R


CITY           SKY/WX    TMP DP  RH WIND       PRES   REMARKS
LAGRANGE*      CLEAR     26  22  85 CALM      30.51S
SYLVANIA*      CLEAR    N/A N/A N/A CALM      30.53R
MILLEDGEVILLE* CLEAR     28  27  93 CALM      30.53R
$$

GAZ099>101-110>166-101300-
SOUTH GEORGIA

CITY           SKY/WX    TMP DP  RH WIND       PRES   REMARKS
SAVANNAH       PTCLDY    30  25  81 N3        30.52R
6HR MIN TEMP:  29; 6HR MAX TEMP:  34;

VALDOSTA       CLEAR     30  26  85 N7        30.48R WCI  23
6HR MIN TEMP:  27; 6HR MAX TEMP:  31;

ALMA           PTCLDY    30  27  88 N3        30.49R
6HR MIN TEMP:  28; 6HR MAX TEMP:  32;

ST SIMONS      CLEAR     41  37  86 N8        30.47R
6HR MIN TEMP:  40; 6HR MAX TEMP:  42;

FT STEWART     CLEAR     31  27  84 CALM      30.49R
ALBANY         CLEAR     30  22  72 N3        30.52S
HUNTER AFB     CLEAR     36  28  74 N3        30.48R
MOODY AFB      CLEAR     29  24  80 N7        30.46R WCI  22
BRUNSWICK      CLEAR     39  36  87 N6        30.48R WCI  35


CITY           SKY/WX    TMP DP  RH WIND       PRES   REMARKS
BAINBRIDGE*    CLEAR     32  25  74 NE3       30.51R
MOULTRIE*      CLEAR     32  27  80 N3        30.49R
VIDALIA*       CLEAR     32  30  93 CALM      30.50F
WAYCROSS*      PTCLDY    32  30  92 CALM      30.48S
DOUGLAS*       CLEAR     32  27  80 N3        30.51R
$$




USA.gov is the U.S. government's official web portal to all federal, state and local government web resources and services.